Total_Precipitation_Accumulation
0.18 0.28 0.62 0.73 0.70 0.71 0.69 0.66 0.65 0.62 0.63 0.70 0.73 0.72 0.70 0.65 0.59 0.51 0.50 0.55 0.61 0.80 0.88 0.86 0.83 0.83 0.78 0.73 0.69 0.53 0.44 0.35 0.31 0.27 0.26 0.33 0.37 0.36 0.29 0.30 0.38 0.36 0.42
0.16 0.25 0.56 0.76 0.84 0.84 0.82 0.72 0.66 0.60 0.62 0.69 0.77 0.80 0.82 0.74 0.62 0.57 0.56 0.57 0.69 0.84 0.89 0.94 0.82 0.70 0.63 0.58 0.49 0.35 0.27 0.19 0.14 0.12 0.10 0.15 0.27 0.33 0.29 0.28 0.36 0.42 0.43
0.20 0.32 0.56 0.79 0.95 0.97 0.94 0.83 0.70 0.61 0.61 0.65 0.77 0.86 0.90 0.84 0.77 0.70 0.67 0.67 0.77 0.85 0.85 0.83 0.79 0.66 0.49 0.41 0.34 0.26 0.19 0.12 0.09 0.08 0.10 0.15 0.22 0.35 0.35 0.31 0.39 0.47 0.42
0.26 0.40 0.60 0.88 1.08 1.11 0.99 0.92 0.82 0.69 0.64 0.67 0.69 0.78 0.88 0.90 0.91 0.83 0.81 0.81 0.80 0.77 0.76 0.75 0.63 0.56 0.46 0.33 0.27 0.24 0.16 0.11 0.09 0.09 0.13 0.19 0.23 0.45 0.51 0.45 0.47 0.48 0.42
0.37 0.51 0.76 1.04 1.23 1.26 1.14 1.05 0.95 0.81 0.72 0.72 0.73 0.74 0.82 0.90 0.94 0.97 0.99 0.93 0.82 0.66 0.63 0.65 0.56 0.51 0.47 0.37 0.29 0.25 0.20 0.14 0.09 0.11 0.18 0.24 0.33 0.65 0.63 0.55 0.53 0.52 0.46
0.56 0.74 0.93 1.15 1.32 1.32 1.25 1.16 1.11 0.99 0.87 0.89 0.87 0.81 0.84 0.87 0.94 1.03 1.02 0.90 0.81 0.68 0.62 0.56 0.54 0.51 0.47 0.39 0.33 0.29 0.24 0.16 0.10 0.13 0.19 0.25 0.38 0.70 0.66 0.57 0.55 0.55 0.55
0.77 0.95 1.10 1.27 1.41 1.38 1.34 1.30 1.25 1.22 1.14 1.08 1.02 0.95 0.95 0.93 0.96 0.99 0.95 0.78 0.73 0.72 0.68 0.64 0.59 0.56 0.54 0.43 0.39 0.34 0.26 0.16 0.11 0.15 0.19 0.26 0.42 0.64 0.62 0.55 0.54 0.57 0.58
1.06 1.22 1.32 1.49 1.60 1.53 1.43 1.37 1.36 1.42 1.40 1.33 1.25 1.16 1.08 1.08 1.05 0.96 0.88 0.73 0.69 0.73 0.76 0.72 0.65 0.58 0.54 0.46 0.41 0.38 0.27 0.13 0.10 0.13 0.18 0.27 0.40 0.57 0.57 0.49 0.50 0.55 0.59
1.46 1.59 1.73 1.73 1.67 1.68 1.62 1.53 1.47 1.48 1.51 1.52 1.42 1.34 1.22 1.18 1.11 0.97 0.85 0.82 0.75 0.75 0.74 0.71 0.70 0.62 0.54 0.47 0.40 0.35 0.23 0.12 0.10 0.15 0.19 0.26 0.40 0.66 0.66 0.56 0.50 0.51 0.54
1.94 2.02 2.13 2.13 1.95 1.84 1.74 1.67 1.61 1.54 1.58 1.63 1.52 1.27 1.10 1.08 1.09 0.99 0.79 0.81 0.83 0.78 0.72 0.67 0.67 0.66 0.54 0.45 0.38 0.33 0.23 0.15 0.13 0.16 0.20 0.25 0.41 0.69 0.73 0.63 0.58 0.55 0.56
2.39 2.39 2.35 2.39 2.33 2.18 2.02 1.79 1.77 1.71 1.69 1.61 1.48 1.29 1.16 1.14 1.05 0.93 0.69 0.64 0.73 0.74 0.70 0.65 0.64 0.66 0.53 0.40 0.36 0.28 0.22 0.18 0.18 0.19 0.21 0.27 0.48 0.63 0.67 0.64 0.61 0.60 0.61
2.51 2.58 2.55 2.55 2.55 2.44 2.26 2.13 2.01 1.82 1.76 1.63 1.39 1.26 1.26 1.19 1.10 0.92 0.76 0.64 0.69 0.70 0.74 0.72 0.65 0.62 0.54 0.41 0.37 0.30 0.23 0.19 0.19 0.20 0.21 0.27 0.48 0.60 0.62 0.63 0.64 0.60 0.60
2.77 2.90 2.89 2.82 2.88 2.90 2.67 2.40 2.27 2.03 1.82 1.79 1.55 1.39 1.29 1.33 1.31 1.21 1.01 0.84 0.81 0.71 0.70 0.71 0.65 0.52 0.47 0.42 0.39 0.32 0.26 0.24 0.23 0.22 0.23 0.27 0.43 0.58 0.61 0.66 0.69 0.66 0.65
2.96 3.14 3.35 3.26 3.19 3.20 2.99 2.69 2.45 2.24 1.98 1.85 1.80 1.61 1.47 1.37 1.29 1.24 1.09 0.93 0.84 0.72 0.67 0.71 0.65 0.52 0.48 0.42 0.40 0.39 0.34 0.30 0.27 0.29 0.30 0.30 0.38 0.58 0.71 0.78 0.76 0.70 0.70
2.83 3.13 3.48 3.44 3.32 3.23 3.07 2.81 2.50 2.38 2.19 1.99 2.00 1.93 1.70 1.52 1.38 1.30 1.25 1.10 0.99 0.83 0.68 0.67 0.72 0.65 0.63 0.58 0.49 0.43 0.42 0.37 0.32 0.31 0.32 0.35 0.38 0.54 0.71 0.81 0.80 0.76 0.76
2.83 3.01 3.34 3.45 3.29 3.24 3.10 2.83 2.50 2.29 2.20 2.13 1.96 1.86 1.83 1.65 1.52 1.44 1.33 1.17 1.07 0.95 0.79 0.68 0.70 0.74 0.73 0.71 0.63 0.55 0.53 0.46 0.38 0.36 0.34 0.37 0.40 0.46 0.62 0.73 0.79 0.87 0.95
2.85 3.07 3.18 3.39 3.44 3.22 3.15 2.89 2.57 2.46 2.28 2.14 2.02 1.83 1.80 1.74 1.62 1.58 1.45 1.26 1.14 1.12 1.00 0.90 0.85 0.86 0.80 0.69 0.61 0.59 0.58 0.52 0.44 0.42 0.39 0.38 0.39 0.42 0.53 0.66 0.72 0.83 1.02
2.89 3.12 3.17 3.22 3.35 3.31 3.19 3.06 2.66 2.45 2.41 2.23 2.12 1.97 1.83 1.80 1.77 1.75 1.61 1.40 1.41 1.46 1.33 1.15 1.03 0.93 0.85 0.77 0.66 0.64 0.60 0.55 0.47 0.46 0.44 0.40 0.38 0.39 0.49 0.63 0.67 0.77 0.91
2.79 3.07 3.25 3.23 3.26 3.44 3.41 3.29 3.10 2.74 2.43 2.40 2.36 2.12 1.87 1.79 1.80 1.75 1.67 1.57 1.61 1.63 1.54 1.38 1.25 1.16 0.99 0.90 0.83 0.80 0.78 0.72 0.64 0.56 0.50 0.49 0.44 0.44 0.55 0.67 0.73 0.77 0.78
2.78 3.03 3.25 3.25 3.23 3.50 3.73 3.62 3.40 3.12 2.62 2.34 2.30 2.19 2.02 1.87 1.79 1.75 1.66 1.66 1.73 1.70 1.63 1.57 1.41 1.32 1.23 1.16 1.09 0.95 0.93 0.91 0.80 0.65 0.56 0.54 0.54 0.56 0.65 0.72 0.73 0.73 0.75
2.69 2.90 3.09 3.18 3.16 3.24 3.45 3.46 3.26 2.98 2.72 2.36 2.19 2.19 2.15 2.07 2.04 1.94 1.74 1.71 1.77 1.67 1.56 1.62 1.67 1.63 1.54 1.42 1.36 1.17 1.05 0.97 0.88 0.69 0.56 0.55 0.57 0.62 0.66 0.70 0.72 0.66 0.59
2.34 2.71 2.93 3.10 3.25 3.12 3.00 3.14 3.20 3.12 2.92 2.66 2.43 2.37 2.22 2.11 2.06 2.05 2.02 1.90 1.91 1.89 1.80 1.72 1.74 1.78 1.72 1.69 1.64 1.54 1.31 1.14 0.92 0.75 0.63 0.58 0.59 0.65 0.66 0.65 0.64 0.63 0.56
2.01 2.36 2.65 2.85 3.09 3.20 3.15 3.28 3.33 3.26 3.05 2.78 2.49 2.33 2.24 2.17 2.12 2.03 2.06 2.09 2.06 2.02 1.91 1.83 1.78 1.77 1.80 1.76 1.71 1.80 1.52 1.17 0.93 0.81 0.69 0.63 0.62 0.63 0.65 0.67 0.65 0.62 0.58
1.76 2.02 2.27 2.60 2.86 3.07 3.21 3.15 3.07 3.01 2.78 2.53 2.46 2.50 2.41 2.27 2.15 2.11 2.06 2.06 2.12 2.06 1.95 1.95 1.94 1.81 1.83 1.85 1.82 1.68 1.48 1.22 1.12 0.97 0.83 0.76 0.69 0.66 0.65 0.65 0.62 0.60 0.61
1.56 1.80 1.97 2.24 2.55 2.72 2.73 2.76 2.81 2.79 2.72 2.64 2.63 2.58 2.50 2.29 2.13 2.06 2.03 2.03 2.02 2.03 2.00 2.00 2.01 1.98 1.89 1.84 1.80 1.76 1.69 1.48 1.28 1.21 1.06 0.93 0.89 0.80 0.73 0.70 0.68 0.66 0.63
1.31 1.54 1.76 1.85 2.08 2.31 2.36 2.42 2.51 2.45 2.47 2.51 2.50 2.53 2.55 2.35 2.08 1.98 1.93 1.90 1.93 1.94 1.94 1.98 2.04 2.07 2.02 1.89 1.78 1.67 1.64 1.57 1.41 1.35 1.23 1.05 1.02 0.92 0.85 0.80 0.76 0.75 0.76